This is the latest recevied weather packets stored in our database for station/object OK1KKY-18. If no packets are shown the sender has not sent any weather packets the latest 10 day(s).
| Time | Temp. | Humidity | Pressure | Rain* | Wind** | Luminosity | Snow |
|---|---|---|---|---|---|---|---|
| 1778051763 | 13.33° C | 75% | 1007.1 hPa | - | - | - | - |
| 1778051163 | 12.22° C | 80% | 1007.1 hPa | - | - | - | - |
| 1778050563 | 11.67° C | 79% | 1007 hPa | - | - | - | - |
| 1778049963 | 11.67° C | 81% | 1006.9 hPa | - | - | - | - |
| 1778049363 | 11.67° C | 81% | 1007.1 hPa | - | - | - | - |
| 1778048763 | 12.22° C | 82% | 1007 hPa | - | - | - | - |
| 1778048163 | 12.22° C | 82% | 1006.9 hPa | - | - | - | - |
| 1778047563 | 11.67° C | 82% | 1007.1 hPa | - | - | - | - |
| 1778046963 | 11.67° C | 82% | 1007.1 hPa | - | - | - | - |
| 1778046363 | 11.67° C | 82% | 1007 hPa | - | - | - | - |
| 1778045764 | 11.67° C | 82% | 1006.7 hPa | - | - | - | - |
| 1778045163 | 11.67° C | 84% | 1006.8 hPa | - | - | - | - |
| 1778044564 | 11.67° C | 84% | 1006.9 hPa | - | - | - | - |
| 1778043963 | 11.11° C | 84% | 1006.8 hPa | - | - | - | - |
| 1778043363 | 11.11° C | 86% | 1006.8 hPa | - | - | - | - |
| 1778042763 | 11.11° C | 86% | 1006.6 hPa | - | - | - | - |
| 1778042163 | 11.11° C | 85% | 1006.5 hPa | - | - | - | - |
| 1778041563 | 11.11° C | 86% | 1006.4 hPa | - | - | - | - |
| 1778040963 | 11.67° C | 84% | 1006.5 hPa | - | - | - | - |
| 1778040363 | 11.11° C | 87% | 1006.4 hPa | - | - | - | - |
| 1778039763 | 11.67° C | 89% | 1006.4 hPa | - | - | - | - |
| 1778039163 | 11.11° C | 89% | 1006.4 hPa | - | - | - | - |
| 1778038563 | 11.67° C | 90% | 1006.4 hPa | - | - | - | - |
| 1778037963 | 11.11° C | 90% | 1006.3 hPa | - | - | - | - |
| 1778037366 | 11.11° C | 90% | 1006.4 hPa | - | - | - | - |
* Rain since midnight (hover to see other rain measurements)
** Current wind speed in m/s (hover to see current wind gust speed)